Location: Bawa
(13.2457°N, 4.8656°W)
Time: 00:58:55
(UTC+00:00)

Daily predictions for brighter satellites

Satellite Brightness Start Highest point End
(mag) Time Altitude Azimuth Time Altitude Azimuth Time Altitude Azimuth
ATLAS CENTAUR R/B 4.3 03:26:22 15° NE 03:26:22 15° NE 03:27:07 10° NE
ATLAS 3B CENTAUR R/B 4.5 03:27:04 22° NW 03:31:28 28° NNW 03:36:53 10° NE
Cosmos 2285 Rocket 4.5 03:38:32 53° NNE 03:38:32 53° NNE 03:43:13 10° NNE
H-2A R/B 4.2 03:42:22 24° ENE 03:42:22 24° ENE 03:45:24 10° NNE
Atlas Centaur 2 3.0 03:49:49 55° NW 03:50:12 56° NNW 03:58:15 10° NE
OAO 2 Rocket 4.5 03:53:02 38° N 03:53:02 38° N 03:56:40 10° NE
SL-16 R/B 4.3 03:53:17 10° NNW 03:54:15 15° NNW 03:54:15 15° NNW
Cosmos 2263 Rocket 4.3 04:05:37 13° NNW 04:05:37 13° NNW 04:06:30 10° NNW
Cosmos 1553 Rocket 3.8 04:04:52 75° WNW 04:04:52 75° WNW 04:10:42 10° N
Delta 7925 Rocket 4.0 04:05:32 66° WNW 04:06:18 72° NNW 04:12:11 10° ENE
ADEOS 4.2 04:04:22 10° NNE 04:09:26 52° ESE 04:11:26 33° SSE
CZ-3A R/B 4.3 04:07:21 32° NW 04:10:28 51° N 05:01:30 10° ENE
ATLAS 2A CENTAUR R/B 3.7 04:13:30 21° N 04:13:34 21° N 04:15:41 10° NE
Cosmos 1606 Rocket 4.2 04:15:01 48° N 04:15:01 48° N 04:18:17 10° N
Aureole 3 3.9 04:15:02 60° N 04:15:02 60° N 04:19:13 10° N
ASC 2 Rocket 4.0 04:17:43 36° SE 04:17:43 36° SE 04:20:31 10° ESE
Cosmos 1300 3.7 04:16:06 41° ESE 04:16:24 42° E 04:20:00 10° NNE
Cosmos 1125 Rocket 3.9 04:18:57 46° NW 04:18:57 46° NW 04:23:07 10° N
Cosmos 1703 4.3 04:15:13 10° NNE 04:18:59 44° E 04:20:55 24° SE
Cosmos 1607 3.8 04:13:52 10° NNW 04:20:20 80° WSW 04:26:43 10° SSE
Meteor 2-8 Rocket 4.5 04:23:58 52° WSW 04:24:29 53° W 04:30:27 10° N
Cosmos 1844 Rocket 2.5 04:27:13 45° SSW 04:29:00 84° WNW 04:34:35 10° NNE
S3M 4.0 04:29:04 38° SSW 04:31:28 63° W 04:37:46 10° N
NOSS 2-2 (C) 3.1 04:31:45 80° NW 04:31:45 80° NW 04:35:15 10° NNE
Cosmos 1726 Rocket 3.6 04:32:00 60° WNW 04:32:00 60° WNW 04:36:11 10° N
CZ-2C R/B 2.6 04:28:32 10° N 04:32:35 45° WNW 04:32:35 45° WNW
Cosmos 1244 Rocket 4.5 04:30:15 10° NNW 04:36:26 60° W 04:42:18 11° S
Meteor 1-31 Rocket 3.5 04:33:48 10° NNE 04:37:31 49° E 04:40:02 19° S
Meteor 2-15 Rocket 4.4 04:32:07 11° S 04:37:57 84° E 04:44:01 10° N
Cosmos 1603 4.4 04:32:59 10° N 04:38:34 56° ENE 04:44:04 10° SSE
Ariane H10+ 3.6 04:32:35 29° WSW 04:39:29 51° S 04:45:01 10° ESE
Cosmos 1484 Rocket 3.0 04:38:26 10° NNE 04:42:06 64° E 04:44:17 23° S
Hubble Space Telescope 1.5 04:43:41 35° NW 04:44:33 40° NNW 04:48:26 10° NE
ERBS 3.2 04:42:06 10° NNW 04:45:15 47° ENE 04:48:26 10° SE
Meteor 2-16 Rocket 4.5 04:39:22 10° NNW 04:45:22 57° W 04:51:21 10° S
METEOR-M 4.4 04:48:03 10° NNE 04:53:23 70° ESE 04:58:41 10° S
SL-08 R/B 4.5 04:48:50 10° NNW 04:54:57 61° W 05:01:08 10° S
ALOS 2.2 04:50:45 10° NNE 04:55:25 89° E 05:00:05 10° SSW
Cosmos 2058 Rocket 3.3 04:54:48 26° SSW 04:57:02 49° W 05:01:23 10° N
ERS-2 3.6 05:02:32 20° WNW 05:02:32 20° WNW 05:04:13 10° NW
CZ-4B R/B 3.6 04:59:30 10° N 05:03:04 59° WNW 05:05:39 18° SSW
Cosmos 2315 Rocket 3.9 04:57:43 10° S 05:03:57 73° W 05:10:14 10° N
Cosmos 1943 3.2 05:00:01 10° NNW 05:05:38 86° ENE 05:11:17 10° SSE
GPS 2-12 Rocket1 4.2 05:08:29 17° SW 05:11:38 34° SSE 05:15:59 10° E
Cosmos 1709 Rocket 4.4 05:07:59 10° N 05:14:02 64° E 05:20:03 10° SSE
H-2A R/B 4.0 05:19:27 11° WNW 05:19:27 11° WNW 05:19:53 10° WNW
Cosmos 1048 Rocket 4.0 05:15:23 10° NNW 05:20:33 86° ENE 05:25:48 10° SSE
Meteor 1-11 4.3 05:17:07 10° NNW 05:22:39 54° W 05:28:07 10° S
SL-4 R/B 4.0 05:20:27 10° N 05:23:27 27° NE 05:26:34 10° ESE
GPS 2-15 Rocket1 3.5 05:21:12 10° WNW 05:26:07 69° NNE 05:31:03 10° E
CZ-4B R/B 2.0 05:23:37 10° SSW 05:26:45 34° W 05:29:49 10° NNW
SL-23 DEB 3.2 05:23:28 10° NW 05:26:46 79° SW 05:30:00 10° SSE
CZ-3B R/B 3.3 05:13:42 10° WNW 05:27:19 50° SW 05:31:45 10° SE
OAO 3 Copernicus 4.5 05:22:40 12° SW 05:27:19 70° SE 05:32:19 10° ENE
Meteosat 1 Rocket2 4.1 05:24:55 11° W 05:29:01 32° NNW 05:32:30 10° NE
H-2A R/B 2.5 05:25:43 10° NNE 05:29:30 73° ESE 05:33:20 10° S
Cosmos 724 4.4 05:23:54 10° NNW 05:29:55 60° WSW 05:35:59 10° S
CZ-4B R/B 3.6 05:29:07 10° N 05:33:19 41° WNW 05:37:24 10° SSW
ARIANE 44LP R/B 3.0 05:36:25 10° SW 05:38:04 19° S 05:39:58 10° SE
SWIFT 4.3 05:35:08 10° SSW 05:38:13 20° SSE 05:41:19 10° ESE
ATLAS 2A CENTAUR R/B 2.7 05:36:15 10° NW 05:39:37 65° NNE 05:51:57 10° ESE
Atlas Centaur 2 4.4 05:34:22 10° WNW 05:40:58 28° NNW 05:48:03 10° NE
PSLV R/B 4.2 05:37:22 10° SSE 05:41:34 77° ENE 05:45:43 10° N
USA 267 3.3 05:35:24 10° SE 05:41:57 87° SW 05:48:29 10° NW
Meteor 2-10 Rocket 3.5 05:39:04 10° SSW 05:44:01 64° W 05:49:04 10° N
